Rutherfordton, NC

2:55 AM EDT on June 26, 2017 (GMT -0400)
Rutherford County-Marchman

Weather History for KFQD - March, 2013

Change the Weather History Date:

Friday, March 15, 2013

  Actual Average (KAVL) Record (KAVL)
Temperature  
Mean Temperature 47 °F -  
Max Temperature 68 °F 59 °F 81 °F (1967)
Min Temperature 26 °F 33 °F 2 °F (1993)
Degree Days  
Heating Degree Days 18    
Moisture  
Dew Point 28 °F    
Average Humidity 50    
Maximum Humidity 77    
Minimum Humidity 29    
Precipitation  
Precipitation 0.00 in - - ()
Sea Level Pressure  
Sea Level Pressure 30.06 in    
Wind  
Wind Speed 3 mph (South)    
Max Wind Speed 17 mph    
Max Gust Speed 23 mph    
Visibility 10 miles    
Events      
Averages and records for this station are not official NWS values.
T = Trace of Precipitation, MM = Missing Value Source: NWS Daily Summary

Daily Weather History Graph

Daily Weather History Graph

Search for Another Location

Airport or City:

Trip Planner

Search our weather history database for the weather conditions in past years. The results will help you decide how hot, cold, wet, or windy it might be!

Date:

Astronomy

Mar. 15, 2013 Rise Set
Actual Time 7:38 AM EDT 7:35 PM EDT
Civil Twilight 7:12 AM EDT 8:00 PM EDT
Nautical Twilight 6:43 AM EDT 8:30 PM EDT
Astronomical Twilight 6:13 AM EDT 9:00 PM EDT
Moon 9:36 AM EDT (3/15) 11:38 PM EDT (3/15)
Length of Visible Light 12h 48m
Length of Day
11h 57m
Waxing Crescent, 15% of the Moon is Illuminated
Mar 15
Waxing Crescent
Mar 19
First Quarter
Mar 27
Full
Apr 3
Last Quarter
Apr 10
New

Hourly Weather History & Observations

Time (EDT) Temp. Windchill Dew Point Humidity Pressure Visibility Wind Dir Wind Speed Gust Speed Precip Events Conditions
12:15 AM 34.5 °F - 17.2 °F 49% 30.19 in 10.0 mi Calm Calm - N/A   Clear
12:35 AM 33.4 °F 30.4 °F 17.4 °F 52% 30.19 in 10.0 mi NNW 3.5 mph - N/A   Clear
12:55 AM 35.1 °F - 16.9 °F 48% 30.18 in 10.0 mi Calm Calm - N/A   Clear
1:15 AM 32.7 °F - 17.6 °F 54% 30.19 in 10.0 mi Calm Calm - N/A   Clear
1:35 AM 32.2 °F - 18.3 °F 57% 30.18 in 10.0 mi Calm Calm - N/A   Clear
1:55 AM 30.7 °F - 18.7 °F 61% 30.18 in 10.0 mi Calm Calm - N/A   Clear
2:15 AM 31.8 °F - 19.0 °F 59% 30.18 in 10.0 mi Calm Calm - N/A   Clear
2:35 AM 31.5 °F - 19.0 °F 60% 30.17 in 10.0 mi Calm Calm - N/A   Clear
2:55 AM 31.3 °F - 19.6 °F 62% 30.17 in 10.0 mi Calm Calm - N/A   Clear
3:15 AM 28.6 °F 24.8 °F 20.5 °F 72% 30.17 in 10.0 mi NW 3.5 mph - N/A   Clear
3:35 AM 29.1 °F - 20.8 °F 71% 30.16 in 10.0 mi Calm Calm - N/A   Clear
3:55 AM 28.6 °F - 21.0 °F 73% 30.15 in 10.0 mi Calm Calm - N/A   Clear
4:15 AM 30.9 °F - 18.7 °F 61% 30.15 in 10.0 mi Calm Calm - N/A   Clear
4:35 AM 29.3 °F - 19.9 °F 68% 30.15 in 10.0 mi Calm Calm - N/A   Clear
4:55 AM 29.8 °F - 18.7 °F 63% 30.15 in 10.0 mi Calm Calm - N/A   Clear
5:15 AM 28.0 °F - 19.9 °F 72% 30.15 in 10.0 mi Calm Calm - N/A   Clear
5:35 AM 27.3 °F - 20.3 °F 75% 30.15 in 10.0 mi Calm Calm - N/A   Clear
5:55 AM 26.8 °F - 19.9 °F 75% 30.15 in 10.0 mi Calm Calm - N/A   Clear
6:15 AM 28.9 °F - 19.9 °F 69% 30.16 in 10.0 mi Calm Calm - N/A   Clear
6:35 AM 28.6 °F - 19.9 °F 70% 30.16 in 10.0 mi Calm Calm - N/A   Clear
6:55 AM 28.8 °F - 19.4 °F 68% 30.17 in 10.0 mi Calm Calm - N/A   Clear
7:15 AM 27.9 °F - 19.0 °F 69% 30.17 in 10.0 mi Calm Calm - N/A   Clear
7:35 AM 27.7 °F - 20.3 °F 74% 30.17 in 10.0 mi Calm Calm - N/A   Clear
7:55 AM 26.4 °F - 19.9 °F 77% 30.17 in 10.0 mi Calm Calm - N/A   Clear
8:15 AM 28.9 °F - 20.5 °F 71% 30.18 in 10.0 mi Calm Calm - N/A   Clear
8:35 AM 31.3 °F - 20.5 °F 64% 30.18 in 10.0 mi Calm Calm - N/A   Clear
8:55 AM 32.5 °F 28.1 °F 21.6 °F 64% 30.17 in 10.0 mi East 4.6 mph - N/A   Clear
9:15 AM 34.7 °F - 22.1 °F 60% 30.18 in 10.0 mi Calm Calm - N/A   Clear
9:35 AM 36.5 °F - 22.5 °F 57% 30.17 in 10.0 mi Calm Calm - N/A   Clear
9:55 AM 39.7 °F - 24.1 °F 54% 30.17 in 10.0 mi Calm Calm - N/A   Clear
10:15 AM 41.7 °F - 22.8 °F 47% 30.16 in 10.0 mi Calm Calm - N/A   Clear
10:35 AM 44.6 °F 41.4 °F 23.9 °F 44% 30.16 in 10.0 mi South 5.8 mph - N/A   Clear
11:55 AM 54.1 °F - 28.9 °F 38% 30.12 in 10.0 mi South 12.7 mph - N/A   Clear
12:15 PM 54.9 °F - 29.8 °F 38% 30.11 in 10.0 mi South 11.5 mph 17.3 mph N/A   Clear
12:35 PM 55.9 °F - 30.2 °F 37% 30.10 in 10.0 mi SSW 11.5 mph 17.3 mph N/A   Clear
12:55 PM 58.5 °F - 32.0 °F 37% 30.08 in 10.0 mi SW 10.4 mph - N/A   Clear
1:15 PM 57.9 °F - 31.6 °F 37% 30.08 in 10.0 mi South 11.5 mph 17.3 mph N/A   Clear
1:35 PM 59.2 °F - 32.2 °F 36% 30.06 in 10.0 mi South 12.7 mph 19.6 mph N/A   Clear
1:55 PM 61.0 °F - 32.7 °F 35% 30.05 in 10.0 mi SSW 6.9 mph 18.4 mph N/A   Clear
2:15 PM 60.4 °F - 32.4 °F 35% 30.03 in 10.0 mi South 12.7 mph 20.7 mph N/A   Clear
2:35 PM 62.2 °F - 33.6 °F 34% 30.02 in 10.0 mi South 17.3 mph 20.7 mph N/A   Clear
2:55 PM 62.6 °F - 33.4 °F 34% 30.01 in 10.0 mi South 10.4 mph 20.7 mph N/A   Clear
3:15 PM 64.0 °F - 33.6 °F 32% 29.99 in 10.0 mi South 11.5 mph 20.7 mph N/A   Clear
3:35 PM 64.4 °F - 33.6 °F 32% 29.98 in 10.0 mi South 13.8 mph 23.0 mph N/A   Clear
3:55 PM 64.8 °F - 34.3 °F 32% 29.96 in 10.0 mi South 12.7 mph 20.7 mph N/A   Clear
4:15 PM 65.8 °F - 35.1 °F 32% 29.95 in 10.0 mi South 15.0 mph 20.7 mph N/A   Clear
4:35 PM 66.6 °F - 35.1 °F 31% 29.94 in 10.0 mi South 9.2 mph 16.1 mph N/A   Clear
4:55 PM 67.1 °F - 35.2 °F 31% 29.94 in 10.0 mi South 9.2 mph 21.9 mph N/A   Clear
5:15 PM 67.8 °F - 35.2 °F 30% 29.93 in 10.0 mi South 13.8 mph 20.7 mph N/A   Clear
5:35 PM 67.8 °F - 34.9 °F 30% 29.92 in 10.0 mi SW 6.9 mph 16.1 mph N/A   Clear
5:55 PM 68.2 °F - 34.9 °F 29% 29.92 in 10.0 mi SSW 6.9 mph - N/A   Clear
6:15 PM 68.0 °F - 35.6 °F 30% 29.91 in 10.0 mi South 8.1 mph - N/A   Clear
6:35 PM 68.0 °F - 34.9 °F 29% 29.91 in 10.0 mi SSW 6.9 mph - N/A   Clear
6:55 PM 66.9 °F - 35.8 °F 32% 29.91 in 10.0 mi South 6.9 mph - N/A   Clear
7:15 PM 65.5 °F - 36.3 °F 34% 29.91 in 10.0 mi South 5.8 mph - N/A   Clear
7:35 PM 64.6 °F - 36.5 °F 35% 29.91 in 10.0 mi South 5.8 mph - N/A   Clear
7:55 PM 64.4 °F - 36.5 °F 36% 29.92 in 10.0 mi South 4.6 mph - N/A   Clear
8:15 PM 62.8 °F - 36.7 °F 38% 29.92 in 10.0 mi Calm Calm - N/A   Clear
8:35 PM 61.3 °F - 36.5 °F 40% 29.91 in 10.0 mi SSE 3.5 mph - N/A   Clear
8:55 PM 57.9 °F - 36.7 °F 45% 29.92 in 10.0 mi WNW 5.8 mph - N/A   Clear
9:15 PM 55.8 °F - 37.0 °F 49% 29.92 in 10.0 mi Calm Calm - N/A   Clear
9:35 PM 54.7 °F - 37.0 °F 51% 29.92 in 10.0 mi NNE 3.5 mph - N/A   Clear
9:55 PM 52.0 °F - 37.6 °F 58% 29.92 in 10.0 mi Calm Calm - N/A   Clear
10:15 PM 53.2 °F - 37.8 °F 56% 29.93 in 10.0 mi NW 3.5 mph - N/A   Scattered Clouds
10:35 PM 52.5 °F - 37.8 °F 57% 29.92 in 10.0 mi Calm Calm - N/A   Scattered Clouds
10:55 PM 51.8 °F - 38.3 °F 60% 29.93 in 10.0 mi Calm Calm - N/A   Scattered Clouds
11:15 PM 54.1 °F - 37.4 °F 53% 29.92 in 10.0 mi Calm Calm - N/A   Scattered Clouds
11:35 PM 53.8 °F - 37.0 °F 53% 29.92 in 10.0 mi Calm Calm - N/A   Mostly Cloudy
11:55 PM 52.5 °F - 37.6 °F 57% 29.92 in 10.0 mi Calm Calm - N/A   Overcast